Location: Bothell
(47.7630°N, 122.2040°W)
Time: 01:01:58
(UTC-07:00)

Amateur Radio Satellites - All Passes

Search period start: 29 August 2014 00:31
Search period end: 30 August 2014 00:31
Location: Bothell, 47.7630°N, 122.2040°W

Satellite Date Start Highest point End Downlink Frequencies (MHz)
Time Altitude Azimuth
Sapphire 29 Aug 01:03:12 01:07:29 23° 35° (NE) 01:11:44 437.095 MHz 1200 baud AX-25 AFSK
KITSAT 1 29 Aug 01:04:16 01:12:23 89° 305° (NW) 01:20:32 435.175 FM
Saudisat 1A 29 Aug 01:30:22 01:34:07 26° 323° (NW) 01:37:53 436.775 MHz
PCSat 29 Aug 01:32:43 01:37:39 34° 43° (NE) 01:42:33 145.825 MHz
Oscar 19 29 Aug 01:46:17 01:50:11 21° 91° (E) 01:54:03 437.125 CW, 437.150 USB
ITAMSAT 1 29 Aug 02:14:38 02:17:56 17° 89° (E) 02:21:14 435.822 SSB
Oscar 16 29 Aug 02:20:09 02:25:05 41° 98° (E) 02:29:59 437.025 USB, Beacon 2401.1428
Uribyol 2 29 Aug 02:24:37 02:28:36 22° 92° (E) 02:32:34 436.500 FM
AO-Echo 29 Aug 02:29:00 02:32:44 23° 93° (E) 02:36:26 ?
AO-27 29 Aug 02:42:18 02:46:49 29° 95° (E) 02:51:19 436.795 MHz FM
Sapphire 29 Aug 02:46:10 02:51:39 89° 237° (WSW) 02:57:05 437.095 MHz 1200 baud AX-25 AFSK
JAS-1B 29 Aug 02:57:27 03:03:57 38° 93° (E) 03:09:34 435.800 - 435.900 CW/SSB
Gurwin Techsat 1B 29 Aug 02:59:54 03:03:51 21° 91° (E) 03:07:46 435.225 FM
Oscar 10/S400 29 Aug 03:01:07 04:04:36 37° 223° (SW) 08:49:57 145.825 - 145.975 CW/USB, Beacon 145.810 USB
KITSAT 1 29 Aug 03:01:43 03:08:51 33° 329° (NNW) 03:16:01 435.175 FM
Saudisat 1A 29 Aug 03:14:31 03:15:13 10° 347° (NNW) 03:15:55 436.775 MHz
PCSat 29 Aug 03:16:02 03:21:18 51° 244° (WSW) 03:26:31 145.825 MHz
Oscar 19 29 Aug 03:24:47 03:29:56 60° 289° (WNW) 03:35:01 437.125 CW, 437.150 USB
SO-50 29 Aug 03:37:04 03:39:04 13° 109° (ESE) 03:41:05 436.795 FM
OPAL 29 Aug 03:41:35 03:46:09 35° 62° (ENE) 03:50:49 ?
TMSAT-1 29 Aug 03:52:00 03:57:02 42° 98° (E) 04:02:02 436.925 FM
ITAMSAT 1 29 Aug 03:52:49 03:58:00 73° 288° (WNW) 04:03:09 435.822 SSB
Oscar 16 29 Aug 03:59:46 04:04:19 31° 296° (WNW) 04:08:50 437.025 USB, Beacon 2401.1428
Uribyol 2 29 Aug 04:03:21 04:08:26 57° 290° (WNW) 04:13:31 436.500 FM
AO-Echo 29 Aug 04:07:16 04:11:45 45° 291° (WNW) 04:16:13 ?
AO-27 29 Aug 04:21:36 04:26:28 42° 293° (WNW) 04:31:20 436.795 MHz FM
Sapphire 29 Aug 04:31:16 04:34:17 15° 256° (WSW) 04:37:18 437.095 MHz 1200 baud AX-25 AFSK
Gurwin Techsat 1B 29 Aug 04:39:00 04:44:15 62° 289° (WNW) 04:49:28 435.225 FM
AO-7 29 Aug 04:40:57 04:48:13 32° 95° (E) 04:55:24 29.400 - 29.500 MHz
JAS-1B 29 Aug 04:48:01 04:54:45 43° 298° (WNW) 05:00:32 435.800 - 435.900 CW/SSB
Uosat F 29 Aug 04:55:56 05:00:25 32° 96° (E) 05:04:52 435.120 FM
KITSAT 1 29 Aug 05:01:16 05:07:07 21° 358° (N) 05:12:58 435.175 FM
Oscar 19 29 Aug 05:07:01 05:08:14 11° 309° (NW) 05:09:27 437.125 CW, 437.150 USB
SO-50 29 Aug 05:14:23 05:18:53 90° 128° (SE) 05:23:32 436.795 FM
OPAL 29 Aug 05:20:23 05:25:01 36° 261° (W) 05:29:45 ?
STRAND 1 29 Aug 05:24:22 05:27:21 16° 56° (NE) 05:30:20 ?
TMSAT-1 29 Aug 05:32:12 05:36:49 31° 296° (WNW) 05:41:25 436.925 FM
ITAMSAT 1 29 Aug 05:34:20 05:36:37 13° 307° (NW) 05:38:55 435.822 SSB
UOSAT-12 29 Aug 05:45:10 05:48:32 20° 112° (ESE) 05:51:56 437.025 FM, 437.400 FM
Uribyol 2 29 Aug 05:46:09 05:46:51 10° 310° (NW) 05:47:34 436.500 FM
Gurwin Techsat 1B 29 Aug 06:21:35 06:23:12 11° 309° (NW) 06:24:48 435.225 FM
AO-7 29 Aug 06:33:22 06:41:34 67° 295° (WNW) 06:49:44 29.400 - 29.500 MHz
Saudisat 1A 29 Aug 06:34:24 06:38:03 24° 35° (NE) 06:41:41 436.775 MHz
Uosat F 29 Aug 06:34:40 06:39:15 37° 294° (WNW) 06:43:48 435.120 FM
JAS-1B 29 Aug 06:41:49 06:43:12 11° 323° (NW) 06:44:33 435.800 - 435.900 CW/SSB
RS-15 29 Aug 06:49:25 06:56:28 20° 98° (E) 07:03:26 29.354 - 29.394 USB, Beacon 29.352 USB
SO-50 29 Aug 06:56:38 07:00:06 21° 329° (NNW) 07:03:39 436.795 FM
KITSAT 1 29 Aug 06:58:30 07:05:29 30° 28° (NNE) 07:12:26 435.175 FM
STRAND 1 29 Aug 07:00:45 07:05:51 88° 255° (WSW) 07:10:59 ?
JAS-2 29 Aug 07:08:52 07:14:00 60° 101° (ESE) 07:19:25 435.800 - 435.900 CW/SSB, 435.910 FM
Hamsat 29 Aug 07:12:15 07:16:39 78° 103° (ESE) 07:20:58 145.90 MHz
UOSAT-12 29 Aug 07:23:37 07:28:14 65° 311° (NW) 07:32:57 437.025 FM, 437.400 FM
SO-67 29 Aug 07:40:59 07:43:48 23° 94° (E) 07:46:37 435.3500 MHz FM
Saudisat 1A 29 Aug 08:13:38 08:18:02 65° 236° (SW) 08:22:23 436.775 MHz
AO-7 29 Aug 08:27:25 08:32:55 20° 318° (NW) 08:38:25 29.400 - 29.500 MHz
SO-50 29 Aug 08:41:46 08:42:28 10° 354° (N) 08:43:11 436.795 FM
STRAND 1 29 Aug 08:43:37 08:45:48 13° 273° (W) 08:47:59 ?
Hamsat 29 Aug 08:49:46 08:52:01 14° 301° (WNW) 08:54:15 145.90 MHz
KITSAT 1 29 Aug 08:54:02 09:02:10 80° 53° (NE) 09:10:15 435.175 FM
JAS-2 29 Aug 08:54:55 08:58:48 22° 300° (WNW) 09:02:47 435.800 - 435.900 CW/SSB, 435.910 FM
RS-15 29 Aug 08:55:51 09:06:49 75° 121° (ESE) 09:17:42 29.354 - 29.394 USB, Beacon 29.352 USB
UOSAT-12 29 Aug 09:06:05 09:09:18 18° 333° (NNW) 09:12:32 437.025 FM, 437.400 FM
SO-67 29 Aug 09:13:55 09:16:50 25° 292° (WNW) 09:19:44 435.3500 MHz FM
HO-68 29 Aug 09:58:43 10:05:41 51° 100° (E) 10:12:36 435.675 MHz FM
SO-50 29 Aug 10:22:51 10:25:09 13° 19° (NNE) 10:27:28 436.795 FM
UKube-1 29 Aug 10:27:27 10:31:41 49° 100° (E) 10:35:54 145.840 MHz, 145.915 MHz
Oscar 11 29 Aug 10:35:13 10:39:23 41° 98° (E) 10:43:30 145.825 FM, Beacon 2401.500 USB
KITSAT 1 29 Aug 10:50:19 10:56:46 27° 254° (WSW) 11:03:12 435.175 FM
UOSAT-12 29 Aug 10:50:49 10:51:23 10° 358° (N) 10:51:57 437.025 FM, 437.400 FM
FUNcube-1 29 Aug 10:56:42 11:00:41 30° 95° (E) 11:04:41 145.950 - 145.970 MHz USB
RS-15 29 Aug 11:09:37 11:20:02 46° 329° (NNW) 11:30:31 29.354 - 29.394 USB, Beacon 29.352 USB
ISS 29 Aug 11:32:38 11:35:23 24° 141° (SE) 11:38:09 145.800 FM
HO-68 29 Aug 11:46:44 11:53:14 39° 300° (WNW) 11:59:43 435.675 MHz FM
JAS-1B 29 Aug 11:57:49 12:02:59 17° 45° (NE) 12:07:49 435.800 - 435.900 CW/SSB
SO-50 29 Aug 12:02:36 12:07:02 38° 42° (NE) 12:11:32 436.795 FM
Oscar 16 29 Aug 12:04:17 12:07:02 15° 55° (NE) 12:09:47 437.025 USB, Beacon 2401.1428
UKube-1 29 Aug 12:04:23 12:07:35 20° 298° (WNW) 12:10:46 145.840 MHz, 145.915 MHz
Oscar 11 29 Aug 12:11:51 12:15:22 24° 296° (WNW) 12:18:51 145.825 FM, Beacon 2401.500 USB
AO-27 29 Aug 12:28:46 12:30:16 11° 51° (NE) 12:31:46 436.795 MHz FM
UOSAT-12 29 Aug 12:30:46 12:33:35 15° 23° (NNE) 12:36:23 437.025 FM, 437.400 FM
FUNcube-1 29 Aug 12:33:02 12:37:05 34° 292° (WNW) 12:41:11 145.950 - 145.970 MHz USB
MaSat-1 29 Aug 12:47:10 12:49:04 12° 98° (E) 12:51:00 437.345 MHz
Oscar 19 29 Aug 13:06:12 13:11:02 42° 67° (ENE) 13:15:54 437.125 CW, 437.150 USB
ISS 29 Aug 13:08:33 13:11:53 74° 339° (NNW) 13:15:13 145.800 FM
RS-15 29 Aug 13:26:17 13:35:49 32° 2° (N) 13:45:29 29.354 - 29.394 USB, Beacon 29.352 USB
ITAMSAT 1 29 Aug 13:35:32 13:40:13 36° 65° (ENE) 13:44:56 435.822 SSB
HO-68 29 Aug 13:38:15 13:39:02 10° 323° (NW) 13:39:48 435.675 MHz FM
TMSAT-1 29 Aug 13:39:10 13:42:16 16° 55° (NE) 13:45:22 436.925 FM
Oscar 16 29 Aug 13:40:26 13:45:36 83° 74° (ENE) 13:50:49 437.025 USB, Beacon 2401.1428
JAS-1B 29 Aug 13:42:34 13:51:53 55° 65° (ENE) 14:00:11 435.800 - 435.900 CW/SSB
SO-50 29 Aug 13:43:12 13:47:39 40° 241° (WSW) 13:52:10 436.795 FM
AO-Echo 29 Aug 13:44:52 13:49:37 45° 69° (ENE) 13:54:16 ?
Uribyol 2 29 Aug 13:45:36 13:50:30 46° 68° (ENE) 13:55:25 436.500 FM
AO-7 29 Aug 13:55:11 14:00:16 18° 40° (NE) 14:05:20 29.400 - 29.500 MHz
AO-27 29 Aug 14:03:41 14:08:47 63° 71° (ENE) 14:13:55 436.795 MHz FM
UOSAT-12 29 Aug 14:10:14 14:14:51 48° 45° (NE) 14:19:25 437.025 FM, 437.400 FM
MaSat-1 29 Aug 14:20:14 14:25:10 78° 117° (ESE) 14:30:21 437.345 MHz
Gurwin Techsat 1B 29 Aug 14:24:03 14:29:03 45° 67° (ENE) 14:34:06 435.225 FM
Uosat F 29 Aug 14:38:10 14:39:29 11° 52° (NE) 14:40:49 435.120 FM
ISS 29 Aug 14:45:44 14:48:55 40° 359° (N) 14:52:06 145.800 FM
Oscar 19 29 Aug 14:46:00 14:50:30 30° 266° (W) 14:55:02 437.125 CW, 437.150 USB
ITAMSAT 1 29 Aug 15:15:03 15:19:44 35° 264° (W) 15:24:27 435.822 SSB
TMSAT-1 29 Aug 15:16:09 15:21:27 88° 74° (ENE) 15:26:47 436.925 FM
Oscar 16 29 Aug 15:22:48 15:25:37 15° 272° (W) 15:28:28 437.025 USB, Beacon 2401.1428
AO-Echo 29 Aug 15:24:24 15:28:34 26° 266° (W) 15:32:40 ?
Uribyol 2 29 Aug 15:25:51 15:30:11 27° 266° (W) 15:34:32 436.500 FM
JAS-1B 29 Aug 15:33:09 15:42:26 47° 263° (W) 15:50:52 435.800 - 435.900 CW/SSB
RS-15 29 Aug 15:40:43 15:51:22 51° 35° (NE) 16:02:19 29.354 - 29.394 USB, Beacon 29.352 USB
AO-7 29 Aug 15:43:18 15:51:25 59° 63° (ENE) 15:59:32 29.400 - 29.500 MHz
AO-27 29 Aug 15:45:01 15:48:45 20° 269° (W) 15:52:30 436.795 MHz FM
UOSAT-12 29 Aug 15:50:47 15:54:49 28° 244° (WSW) 15:58:47 437.025 FM, 437.400 FM
MaSat-1 29 Aug 15:58:50 16:02:48 23° 318° (NW) 16:06:51 437.345 MHz
Gurwin Techsat 1B 29 Aug 16:04:38 16:09:12 29° 266° (W) 16:13:47 435.225 FM
Uosat F 29 Aug 16:12:23 16:17:20 64° 71° (ENE) 16:22:18 435.120 FM
PCSat 29 Aug 16:21:35 16:23:32 12° 102° (ESE) 16:25:29 145.825 MHz
ISS 29 Aug 16:22:39 16:25:58 67° 19° (NNE) 16:29:18 145.800 FM
Hamsat 29 Aug 16:36:14 16:37:40 11° 57° (ENE) 16:39:05 145.90 MHz
TMSAT-1 29 Aug 16:59:26 17:02:07 14° 273° (W) 17:04:49 436.925 FM
JAS-2 29 Aug 17:24:45 17:30:17 39° 67° (ENE) 17:35:20 435.800 - 435.900 CW/SSB, 435.910 FM
OPAL 29 Aug 17:26:14 17:31:15 45° 101° (E) 17:36:14 ?
Sapphire 29 Aug 17:31:26 17:36:28 42° 114° (ESE) 17:41:33 437.095 MHz 1200 baud AX-25 AFSK
AO-7 29 Aug 17:36:59 17:44:34 38° 263° (W) 17:52:11 29.400 - 29.500 MHz
Uosat F 29 Aug 17:53:07 17:56:34 19° 269° (W) 18:00:02 435.120 FM
RS-15 29 Aug 17:53:24 18:04:16 66° 241° (WSW) 18:15:33 29.354 - 29.394 USB, Beacon 29.352 USB
ISS 29 Aug 17:59:37 18:02:32 28° 218° (SW) 18:05:27 145.800 FM
PCSat 29 Aug 18:00:36 18:05:59 74° 121° (ESE) 18:11:26 145.825 MHz
Hamsat 29 Aug 18:08:34 18:12:54 84° 76° (ENE) 18:17:17 145.90 MHz
SO-67 29 Aug 18:18:13 18:20:14 15° 64° (ENE) 18:22:15 435.3500 MHz FM
HO-68 29 Aug 18:47:52 18:51:18 14° 43° (NE) 18:54:43 435.675 MHz FM
OPAL 29 Aug 19:05:27 19:09:58 30° 299° (WNW) 19:14:27 ?
STRAND 1 29 Aug 19:08:29 19:12:36 24° 93° (E) 19:16:42 ?
JAS-2 29 Aug 19:09:51 19:15:27 36° 263° (W) 19:20:33 435.800 - 435.900 CW/SSB, 435.910 FM
Sapphire 29 Aug 19:14:54 19:19:57 39° 315° (NW) 19:25:03 437.095 MHz 1200 baud AX-25 AFSK
PCSat 29 Aug 19:45:28 19:49:58 26° 322° (NW) 19:54:30 145.825 MHz
Hamsat 29 Aug 19:48:15 19:49:29 11° 274° (W) 19:50:43 145.90 MHz
SO-67 29 Aug 19:49:38 19:52:58 43° 262° (W) 19:56:18 435.3500 MHz FM
RS-15 29 Aug 20:08:21 20:14:22 16° 264° (W) 20:20:31 29.354 - 29.394 USB, Beacon 29.352 USB
HO-68 29 Aug 20:30:37 20:37:30 54° 65° (ENE) 20:44:25 435.675 MHz FM
STRAND 1 29 Aug 20:47:08 20:52:04 50° 291° (WNW) 20:56:59 ?
MaSat-1 29 Aug 20:59:18 21:01:02 12° 30° (NNE) 21:02:43 437.345 MHz
Sapphire 29 Aug 21:02:21 21:04:58 13° 339° (NNW) 21:07:35 437.095 MHz 1200 baud AX-25 AFSK
UKube-1 29 Aug 21:26:04 21:30:23 68° 73° (ENE) 21:34:43 145.840 MHz, 145.915 MHz
Oscar 11 29 Aug 21:33:23 21:37:34 49° 71° (ENE) 21:41:48 145.825 FM, Beacon 2401.500 USB
PCSat 29 Aug 21:34:05 21:35:25 11° 347° (NNW) 21:36:44 145.825 MHz
FUNcube-1 29 Aug 21:56:41 22:00:29 34° 68° (ENE) 22:04:21 145.950 - 145.970 MHz USB
HO-68 29 Aug 22:19:04 22:25:29 35° 264° (W) 22:31:56 435.675 MHz FM
Saudisat 1A 29 Aug 22:25:15 22:27:34 14° 110° (ESE) 22:29:54 436.775 MHz
MaSat-1 29 Aug 22:34:45 22:39:23 46° 53° (NE) 22:43:27 437.345 MHz
UKube-1 29 Aug 23:04:46 23:07:03 14° 270° (W) 23:09:21 145.840 MHz, 145.915 MHz
Oscar 11 29 Aug 23:10:57 23:14:03 19° 269° (W) 23:17:10 145.825 FM, Beacon 2401.500 USB
PCSat 29 Aug 23:19:57 23:21:32 11° 14° (NNE) 23:23:06 145.825 MHz
KITSAT 1 29 Aug 23:26:39 23:33:40 34° 109° (ESE) 23:40:41 435.175 FM
FUNcube-1 29 Aug 23:33:28 23:36:58 25° 266° (W) 23:40:31 145.950 - 145.970 MHz USB
Saudisat 1A 30 Aug 00:02:08 00:06:33 82° 309° (NW) 00:11:00 436.775 MHz
MaSat-1 30 Aug 00:12:22 00:16:02 24° 255° (WSW) 00:19:21 437.345 MHz
